Погода Санкт-Петербург

Хотите узнать прогноз погоды в Санкт-Петербурге? Тогда Вам сюда: Погода в Санкт-Петербурге

Поиск расширенной информации на нашем сайте:

Полезная информация:

Новости сайта



02.01.2020
Опубликован Долгосрочный прогноз погоды по городам России и ближнего зарубежья на январь 2020 года.
Карты: Прогноз на январь и февраль 2020 года, Сравнение прогнозируемой аномалии приземной температуры воздуха на январь 2020 года по разным моделям.




Погода Санкт-Петербург - сегодня

Время (UTC), дата Ветер
(°,м/с) 
Видим.   Явления Облачность Т
(°С)
Тd
(°С)
f(%) Тe
(°С)
Pmin
(гПа)
dP
(гПа)
Po
(мм)
O2
(г/м3)
Тmin Tmax R s Состояние
почвы
00 29.11.20 070 (В) 10 км    10/10 300 м 
[St]
+0.1 -2.3 84 +1  1031.7  0.6  773  312           
03 29.11.20 090 (В) 10 км    10/10 300 м 
[St]
-0.5 -2.9 84 -1  1031.8  0.1  773  313  -0.7         
06 29.11.20 090 (В) 10 км    10/10 300 м 
[St]
-0.3 -3 82 1031.7  -0.1  773  312  -0.7         
09 29.11.20 070 (В) 10 км    10/10 300 м 
[Sc]
-0.4 -3.3 81 1031.7  773  313           
12 29.11.20 080 (В) 10 км    10/10 300 м 
[Sc]
-0.6 -3.1 83 1030.9  -0.8  773  312           
15 29.11.20 040 (СВ) 10 км    9/4 1000 м средняя 
[Sc|Ac trans]
-0.4 -2.8 84 1029.3  -1.6  772  312           
18 29.11.20 090 (В) 10 км    10/10 400 м 
[St]
-0.3 -2.8 83 -1  1028.4  -0.9  771  311    +0.1       
21 29.11.20 100 (В) 10 км    10/10 360 м 
[St]
-0.6 -2.8 85 1027.2  -1.2  770  311           
00 30.11.20 080 (В) 10 км    10/10 360 м 
[St]
+0.1 -2 86 +1  1025.4  -1.8  769  310           
03 30.11.20 080 (В) 10 км  в посл. час снег  10/10 270 м 
[St]
+0.4 -0.8 92 +1  1023.9  -1.5  768  309  -0.7    0.6     
06 30.11.20 120 (ЮВ) 10 км  {снег}  10/10 240 м 
[St]
+1.8 +0.5 91 +1  1023.1  -0.9  767  307  -0.7    0.6  <0.5  мокрый или
старый снег
50-90% 
09 30.11.20 120 (ЮВ) 10 км    10/10 300 м 
[Sc diur, vesp]
+2.3 -0.1 84 +2  1022.8  -0.2  767  306           
12 30.11.20 100 (В) 10 км    9/9 300 м 
[Cu hum]
+2 -0.7 82 +1  1021.6  -1.2  766  306           
15 30.11.20 110 (В) 10 км  {ливн. осадки, снег}  10/3 300 м средняя 
[Cu hum|As trans]
+1.3 -1.8 80 +1  1020.6  -1  765  307      0.0     
18 30.11.20 110 (В) 10 км  слаб. снег{ливн. осадки}  10/10 300 м 
[Sc diur, vesp]
+1.1 -1.3 84 +2  1019.5  -1.2  764  307    +2.5  0.0     
21 30.11.20 170 (Ю) 10 км  в посл. час снег{ливн. осадки}  10/10 300 м 
[Sc diur, vesp]
+0.7 -1.5 85 -1  1019.2  -0.3  764  307           
00 01.12.20 120 (ЮВ) 10 км  {ливн. осадки, снег}  10/10 300 м 
[Sc diur, vesp]
+0.8 -1.4 85 1018.7  -0.4  764  307           
03 01.12.20 180 (Ю) 10 км  слаб. снег  10/10 300 м 
[Sc diur, vesp]
+0.6 -0.9 90 -1  1018.9  0.1  764  307  +0.4    0.0     
06 01.12.20 200 (Ю) 10 км  {снег}  10/10 300 м 
[Sc]
+1.1 -0.7 88 1020.2  1.4  765  307  +0.4    0.0  <0.5  мокрый или
старый снег
50-90% 
09 01.12.20 210 (ЮЗ) 10 км    9/9 300 м 
[Sc]
+1.6 -0.7 85 +1  1022.2  766  307           
12 01.12.20 210 (ЮЗ) 10 км    9/9 300 м 
[Sc]
+2.3 +0 85 1023.3  1.1  767  307           
15 01.12.20 210 (ЮЗ) 5-10{10}  4000 м  слаб. дождь  10/10 300 м 
[Frnb|Ns]
+2 +0.1 87 -1  1025.3  769  307      0.0     
21 01.12.20 220 (ЮЗ) 4000 м  слаб. дождь  10/10 300 м 
[Frnb|Ns]
+2.2 +1 92 1028.7  1.6  771  308           
00 02.12.20 220 (ЮЗ) 10 км  слаб. дождь  10/10 480 м 
[Sc]
+2.6 +0.7 87 +1  1030  1.4  772  308           
03 02.12.20 230 (ЮЗ) 10 км    9/9 600 м 
[Sc]
+2.1 -0.2 85 +1  1030.6  0.6  773  309  +1.9    0.4     
Время (UTC), дата Ветер
(°,м/с) 
Видим.   Явления Облачность Т
(°С)
Тd
(°С)
f(%) Тe
(°С)
Pmin
(гПа)
dP
(гПа)
Po
(мм)
O2
(г/м3)
Тmin Tmax R s Состояние
почвы

Для получения пояснительной информации подведите курсор к названию столбца.

ПОГОДА Санкт-Петербург - архив

Всё, что Вы хотите узнать о погоде Санкт-Петербург - удобно и подробно!

Выберите нужную дату (начиная с 1 января 2019* года) и нажмите кнопку "Найти".
Будут отображены архивные сводки погоды по пункту Санкт-Петербург, начиная с указанной даты.


Отображать данные в формате CSV (для использования в таблицах Excel)


Внимание! Наш архив погоды предназначен исключительно для личного некоммерческого использования в познавательных целях. Если Вам необходимы официальные справки о состоянии погоды (для производственных, юридических, коммерческих и т.п. целей), обращайтесь в органы Росгидромета.

*Примечание: данная дата относится к архиву по метеостанциям СССР (Россия, СНГ, Балтия).
Архив по метеостанциям Зарубежной Европы и Азии (кроме Китая) хранится 10 дней, по другим регионам земного шара (Китай, Африка, Америка, Австралия, Океания) - 1 день.

Санкт-Петербург - район местоположения метеостанции


Название, широта, долгота, высота метеостанции:
Санкт-Петербург (ИЦП) 60°ш. 30.3°д. 6 м над ур. моря [Российская Федерация]

Дополнительная информация

В oтличие oт бoльшинства пoгoдных сайтoв мы публикуем пoдрoбную метеoинфoрмацию в детальнoм прoфессиoнальнoм фoрмате.

Характеристики температуры и влажнoсти вoздуха измеряются на высoте 2 м в тени вдали oт зданий и деревьев.
Скoрoсть ветра измеряется на высoте 10 м (на урoвне рoста челoвека скoрoсть ветра ниже в 1.5-2 раза). Если метеoстанция нахoдится в гoрoде или в лесу, тo скoрoсть ветра занижена на 2-4 м/с пo сравнению с oткрытым местoм. Скoрoсть ветра над акватoриями крупных рек и oзёр, а также на вершинах хoлмoв на 2-5 м/с выше, чем в oбычных услoвиях.
Атмoсфернoе давление в разных тoчках местнoсти мoжет значительнo oтличаться oт давления на метеoстанции, в зависимoсти oт услoвий рельефа (при пoдъёме на 10 м давление пoнижается примернo на 1 мм рт.ст.).